Location: Vassar Physics Lab
(41.6843°N, 73.8954°W)
Time: 20:05:14
(UTC-04:00)

CZ-4B DEB - Visible Passes

Search period start: 27 May 2016 00:00
Search period end: 06 June 2016 00:00
Orbit: 841 x 864 km, 98.9° (Epoch: 26 May)

Date Brightness Start Highest point End Pass type
(mag) Time Alt. Az. Time Alt. Az. Time Alt. Az.
27 May 5.0 04:19:34 10° NNE 04:24:56 53° E 04:30:18 10° S visible
28 May 5.3 04:08:19 10° NNE 04:13:32 42° E 04:18:43 10° S visible
29 May 5.7 03:57:08 10° NNE 04:02:05 33° E 04:07:01 10° SSE visible
30 May 6.1 03:46:02 10° NE 03:50:38 27° E 03:55:12 10° SSE visible
31 May 6.4 03:35:03 10° NE 03:39:10 21° E 03:43:16 10° SE visible
01 Jun 6.6 03:24:13 10° NE 03:27:40 17° E 03:31:06 10° SE visible
02 Jun 6.7 03:13:42 10° ENE 03:16:09 13° E 03:18:36 10° ESE visible
03 Jun 4.4 04:40:34 10° NNE 04:46:06 81° ESE 04:51:39 10° SSW visible
04 Jun 4.7 04:29:15 10° NNE 04:34:44 64° ESE 04:40:13 10° S visible
05 Jun 5.0 04:17:57 10° NNE 04:23:20 51° E 04:28:41 10° S visible
